Wise, VA

4:05 PM EST on December 02, 2016 (GMT -0500)
Lonesome Pine

Weather History for KLNP - March, 2012

Change the Weather History Date:

Tuesday, March 13, 2012

  Actual Average Record
Temperature  
Mean Temperature 63 °F -  
Max Temperature 71 °F 49 °F 73 °F (2006)
Min Temperature 55 °F 31 °F 12 °F (1998)
Degree Days  
Heating Degree Days 2    
Growing Degree Days 13 (Base 50)    
Moisture  
Dew Point 54 °F    
Average Humidity 80    
Maximum Humidity 100    
Minimum Humidity 49    
Precipitation  
Precipitation 0.00 in - - ()
Sea Level Pressure  
Sea Level Pressure 30.21 in    
Wind  
Wind Speed 11 mph (SW)    
Max Wind Speed 18 mph    
Max Gust Speed 26 mph    
Visibility 10 miles    
Events      
Averages and records for this station are not official NWS values.
T = Trace of Precipitation, MM = Missing Value Source: NWS Daily Summary

Daily Weather History Graph

Daily Weather History Graph

Search for Another Location

Airport or City:

Trip Planner

Search our weather history database for the weather conditions in past years. The results will help you decide how hot, cold, wet, or windy it might be!

Date:

Astronomy

Mar. 13, 2012 Rise Set
Actual Time 7:43 AM EDT 7:36 PM EDT
Civil Twilight 7:17 AM EDT 8:01 PM EDT
Nautical Twilight 6:47 AM EDT 8:32 PM EDT
Astronomical Twilight 6:17 AM EDT 9:02 PM EDT
Moon 12:57 AM EDT (3/13) 11:04 AM EDT (3/13)
Length of Visible Light 12h 44m
Length of Day
11h 52m
Waning Gibbous, 66% of the Moon is Illuminated
Mar 13
Waning Gibbous
Mar 14
Last Quarter
Mar 22
New
Mar 30
First Quarter
Apr 6
Full

Hourly Weather History & Observations

Time (EDT) Temp. Dew Point Humidity Pressure Visibility Wind Dir Wind Speed Gust Speed Precip Events Conditions
12:15 AM 57.2 °F 53.6 °F 88% 30.22 in 10.0 mi SSW 15.0 mph 19.6 mph N/A   Overcast
12:35 AM 57.2 °F 53.6 °F 88% 30.22 in 10.0 mi SSW 9.2 mph - N/A   Overcast
12:55 AM 55.4 °F 53.6 °F 94% 30.22 in 10.0 mi SW 8.1 mph - N/A   Overcast
1:15 AM 55.4 °F 53.6 °F 94% 30.22 in 10.0 mi SW 10.4 mph - N/A   Overcast
1:35 AM 57.2 °F 53.6 °F 88% 30.21 in 10.0 mi SW 10.4 mph 16.1 mph N/A   Overcast
1:55 AM 55.4 °F 53.6 °F 94% 30.22 in 10.0 mi SW 12.7 mph - N/A   Overcast
2:15 AM 55.4 °F 53.6 °F 94% 30.22 in 10.0 mi WSW 10.4 mph 18.4 mph N/A   Overcast
2:35 AM 55.4 °F 53.6 °F 94% 30.22 in 10.0 mi SW 10.4 mph - N/A   Overcast
2:55 AM 55.4 °F 53.6 °F 94% 30.23 in 10.0 mi SW 11.5 mph 20.7 mph N/A   Overcast
3:15 AM 55.4 °F 53.6 °F 94% 30.22 in 10.0 mi SW 13.8 mph - N/A   Overcast
3:35 AM 55.4 °F 55.4 °F 100% 30.22 in 10.0 mi SW 16.1 mph - N/A   Overcast
3:55 AM 55.4 °F 55.4 °F 100% 30.21 in 10.0 mi SW 16.1 mph - N/A   Overcast
4:15 AM 55.4 °F 55.4 °F 100% 30.21 in 10.0 mi SW 15.0 mph 20.7 mph N/A   Overcast
4:35 AM 55.4 °F 55.4 °F 100% 30.20 in 10.0 mi SSW 18.4 mph 23.0 mph N/A   Overcast
4:55 AM 55.4 °F 55.4 °F 100% 30.20 in 10.0 mi SW 15.0 mph 26.5 mph N/A   Overcast
5:15 AM 55.4 °F 55.4 °F 100% 30.20 in 10.0 mi SW 18.4 mph 21.9 mph N/A   Overcast
5:35 AM 55.4 °F 55.4 °F 100% 30.20 in 10.0 mi SW 15.0 mph 23.0 mph N/A   Overcast
5:55 AM 55.4 °F 55.4 °F 100% 30.21 in 10.0 mi SW 12.7 mph 20.7 mph N/A   Overcast
6:15 AM 55.4 °F 55.4 °F 100% 30.21 in 10.0 mi WSW 13.8 mph 18.4 mph N/A   Overcast
6:35 AM 55.4 °F 55.4 °F 100% 30.21 in 10.0 mi WSW 13.8 mph - N/A   Overcast
6:55 AM 55.4 °F 55.4 °F 100% 30.22 in 10.0 mi SW 10.4 mph - N/A   Overcast
7:15 AM 55.4 °F 55.4 °F 100% 30.22 in 10.0 mi WSW 9.2 mph - N/A   Overcast
7:35 AM 55.4 °F 55.4 °F 100% 30.22 in 10.0 mi WSW 6.9 mph - N/A   Overcast
7:55 AM 55.4 °F 55.4 °F 100% 30.23 in 10.0 mi WSW 6.9 mph - N/A   Overcast
8:35 AM 55.4 °F 55.4 °F 100% 30.23 in 10.0 mi SW 5.8 mph - N/A   Overcast
8:55 AM 57.2 °F 57.2 °F 100% 30.24 in 10.0 mi WSW 8.1 mph - N/A   Overcast
9:15 AM 57.2 °F 57.2 °F 100% 30.24 in 10.0 mi SW 9.2 mph - N/A   Overcast
9:35 AM 59.0 °F 57.2 °F 94% 30.24 in 10.0 mi SW 11.5 mph - N/A   Mostly Cloudy
9:55 AM 59.0 °F 57.2 °F 94% 30.24 in 10.0 mi SW 11.5 mph - N/A   Scattered Clouds
10:15 AM 60.8 °F 57.2 °F 88% 30.24 in 10.0 mi WSW 11.5 mph - N/A   Clear
10:35 AM 60.8 °F 57.2 °F 88% 30.24 in 10.0 mi SW 9.2 mph - N/A   Scattered Clouds
10:55 AM 62.6 °F 55.4 °F 77% 30.24 in 10.0 mi SW 9.2 mph - N/A   Scattered Clouds
11:15 AM 62.6 °F 55.4 °F 77% 30.24 in 10.0 mi WSW 6.9 mph 10.4 mph N/A   Overcast
11:35 AM 64.4 °F 55.4 °F 73% 30.24 in 10.0 mi SW 8.1 mph - N/A   Mostly Cloudy
11:55 AM 62.6 °F 55.4 °F 77% 30.24 in 10.0 mi SW 9.2 mph - N/A   Scattered Clouds
12:15 PM 64.4 °F 53.6 °F 68% 30.23 in 10.0 mi SW 6.9 mph 17.3 mph N/A   Scattered Clouds
12:35 PM 64.4 °F 53.6 °F 68% 30.23 in 10.0 mi SW 8.1 mph - N/A   Scattered Clouds
12:55 PM 66.2 °F 53.6 °F 64% 30.23 in 10.0 mi WSW 6.9 mph - N/A   Mostly Cloudy
1:15 PM 68.0 °F 53.6 °F 60% 30.23 in 10.0 mi SW 12.7 mph 16.1 mph N/A   Scattered Clouds
1:35 PM 68.0 °F 53.6 °F 60% 30.22 in 10.0 mi SSW 5.8 mph - N/A   Mostly Cloudy
1:55 PM 69.8 °F 53.6 °F 56% 30.22 in 10.0 mi SSW 10.4 mph - N/A   Mostly Cloudy
2:15 PM 69.8 °F 53.6 °F 56% 30.21 in 10.0 mi WSW 8.1 mph - N/A   Overcast
2:35 PM 69.8 °F 53.6 °F 56% 30.20 in 10.0 mi WSW 11.5 mph 17.3 mph N/A   Mostly Cloudy
2:55 PM 69.8 °F 51.8 °F 53% 30.19 in 10.0 mi SSW 11.5 mph - N/A   Scattered Clouds
3:15 PM 69.8 °F 51.8 °F 53% 30.19 in 10.0 mi SSW 6.9 mph 18.4 mph N/A   Mostly Cloudy
3:35 PM 69.8 °F 51.8 °F 53% 30.18 in 10.0 mi SW 5.8 mph - N/A   Mostly Cloudy
3:55 PM 68.0 °F 50.0 °F 52% 30.18 in 10.0 mi SSW 9.2 mph - N/A   Mostly Cloudy
4:15 PM 69.8 °F 51.8 °F 53% 30.17 in 10.0 mi SW 10.4 mph - N/A   Mostly Cloudy
4:35 PM 71.6 °F 51.8 °F 50% 30.18 in 10.0 mi WSW 10.4 mph 17.3 mph N/A   Mostly Cloudy
4:55 PM 69.8 °F 50.0 °F 49% 30.17 in 10.0 mi SW 9.2 mph - N/A   Scattered Clouds
5:15 PM 68.0 °F 51.8 °F 56% 30.17 in 10.0 mi SSW 10.4 mph - N/A   Clear
5:35 PM 69.8 °F 51.8 °F 53% 30.17 in 10.0 mi SW 8.1 mph - N/A   Scattered Clouds
5:55 PM 69.8 °F 53.6 °F 56% 30.17 in 10.0 mi SW 10.4 mph - N/A   Mostly Cloudy
6:15 PM 66.2 °F 53.6 °F 64% 30.17 in 10.0 mi South 6.9 mph - N/A   Scattered Clouds
6:55 PM 64.4 °F 53.6 °F 68% 30.18 in 10.0 mi SSW 6.9 mph - N/A   Scattered Clouds
7:15 PM 64.4 °F 53.6 °F 68% 30.18 in 10.0 mi SSW 6.9 mph - N/A   Clear
7:35 PM 64.4 °F 51.8 °F 64% 30.19 in 10.0 mi SW 8.1 mph - N/A   Clear
7:55 PM 62.6 °F 51.8 °F 68% 30.20 in 10.0 mi SW 6.9 mph - N/A   Scattered Clouds
8:15 PM 60.8 °F 51.8 °F 72% 30.20 in 10.0 mi SW 5.8 mph - N/A   Clear
8:35 PM 60.8 °F 51.8 °F 72% 30.20 in 10.0 mi SW 5.8 mph - N/A   Clear
8:55 PM 60.8 °F 51.8 °F 72% 30.21 in 10.0 mi SW 4.6 mph - N/A   Clear
9:15 PM 59.0 °F 51.8 °F 77% 30.21 in 10.0 mi SW 4.6 mph - N/A   Scattered Clouds
9:35 PM 59.0 °F 51.8 °F 77% 30.22 in 10.0 mi WSW 5.8 mph - N/A   Mostly Cloudy
9:55 PM 59.0 °F 51.8 °F 77% 30.23 in 10.0 mi WSW 4.6 mph - N/A   Overcast
10:15 PM 60.8 °F 51.8 °F 72% 30.23 in 10.0 mi WSW 5.8 mph - N/A   Mostly Cloudy
10:35 PM 60.8 °F 51.8 °F 72% 30.23 in 10.0 mi WSW 5.8 mph - N/A   Mostly Cloudy
10:55 PM 60.8 °F 53.6 °F 77% 30.24 in 10.0 mi WSW 4.6 mph - N/A   Overcast
11:15 PM 60.8 °F 51.8 °F 72% 30.24 in 10.0 mi WSW 4.6 mph - N/A   Overcast
11:55 PM 59.0 °F 51.8 °F 77% 30.25 in 10.0 mi WSW 4.6 mph - N/A   Mostly Cloudy